Regional Weather Roundup
Issued by NWS Green Bay, WI

Home | Current Version | Previous Version | Graphics & Text | Print | Product List | Glossary Off
Versions: 1 2 3 4 5 6 7 8 9 10 11 12 13 14 15 16 17 18 19 20 21 22 23 24 25 26 27 28 29 30 31 32 33 34 35 36 37 38 39 40 41 42 43 44 45 46 47 48 49 50

000
ASUS43 KGRB 192211
RWRGRB

NORTH-CENTRAL AND NORTHEAST WISCONSIN REGIONAL WEATHER ROUNDUP
NATIONAL WEATHER SERVICE GREEN BAY WI
400 PM CST THU JAN 19 2017

WIZ005-009-010>012-018-019-192300-
NORTH CENTRAL WISCONSIN

CITY           SKY/WX    TMP DP  RH WIND       PRES   REMARKS
IRONWOOD       CLEAR     50  37  61 SW9       29.76R
MANITOWISH WTR CLEAR     42  34  72 S8        29.78R
ARBOR VITAE    CLEAR     42  34  73 S6        29.79S
EAGLE RIVER    CLEAR     47  32  57 SW5       29.79S
LAND O LAKES   CLEAR     48  36  62 SW5       29.80R
RHINELANDER    CLEAR     39  33  79 CALM      29.80F
PHILLIPS       CLEAR     42  32  69 S5        29.77S
ANTIGO         CLOUDY    32  32 100 SE7       29.84R FOG
TOMAHAWK       CLEAR     35  31  87 CALM      29.81F
MERRILL        CLOUDY    34  33  97 SE5         N/A  FOG
$$

WIZ013-073-192300-
NORTHEAST WISCONSIN

CITY           SKY/WX    TMP DP  RH WIND       PRES   REMARKS
IRON MOUNTAIN  CLEAR     37  30  75 SE8       29.82R
MARINETTE      NOT AVBL
OCONTO         CLOUDY    33  32  96 W5        29.89S
$$

WIZ017-030-035>037-045-192300-
CENTRAL WISCONSIN

CITY           SKY/WX    TMP DP  RH WIND       PRES   REMARKS
MEDFORD        FOG       32  31  99 SE5       29.81R VSB 1/2
WAUSAU         CLOUDY    36  32  85 SE8       29.82S
MOSINEE        MOCLDY    34  34 100 SE3       29.84S FOG
MARSHFIELD     CLOUDY    34  31  88 E7        29.81S FOG
WISC RAPIDS    CLOUDY    37  33  85 SE5       29.85R
STEVENS POINT  CLOUDY    32  32 100 E3        29.85S FOG
WAUPACA        CLOUDY    35  32  90 CALM      29.87F FOG
SHAWANO        CLOUDY    34  32  91 CALM      29.87F FOG
CLINTONVILLE   FOG       32  32 100 S6        29.87S VSB 1/2
WAUTOMA        CLOUDY    34  31  88 S7        29.88S
$$

WIZ038-039-048-051-192300-
FOX VALLEY

CITY           SKY/WX    TMP DP  RH WIND       PRES   REMARKS
NWS GREEN BAY  FOG       34  34 100 SW3       29.88S VSB 1/2
APPLETON       FOG       32  32 100 SW5       29.86S VSB 3/4
OSHKOSH        CLOUDY    33  31  92 S5        29.88S FOG
FOND DU LAC    CLOUDY    35  32  88 S5        29.88R FOG
$$

WIZ022-050-052-192300-
EAST CENTRAL WISCONSIN

CITY           SKY/WX    TMP DP  RH WIND       PRES   REMARKS
EPHRAIM        CLOUDY    33  33 100 SW3       29.89R FOG
WASHINGTON ISL CLOUDY    33  32  96 SW6       29.90R FOG
STURGEON BAY   CLOUDY    33  32  96 S6        29.90R FOG
MANITOWOC      FOG       34  32  92 S6        29.89S VSB 3/4
SHEBOYGAN      FOG       32  31  96 S7        29.89R VSB 1/4
$$

LMZ563-521-522-541>543-192300-
LAKESHORE

STATION/POSITION TIME  TEMP    WIND        PRES    VSBY  WAVE
                       AIR SEA DIR/SP/G                  HT/PER
                 (UTC) (F)     (DEG/KT/KT) (MB)    (MI)  (FT/S)
SHEBOYGAN LKSHOR 2200   33     190/ 13/ 14 1013.1R
KEWAUNEE LKSHORE 2148   33     190/  6/  8 1012.0R
ALGOMA MARINA    2054          230/ 14/ 17   N/A
NORTHPORT PIER   2140   34     180/  2/  5 1012.5R
SISTER BAY LKSHO 2135   33     200/  9/ 11   N/A
MENOMINEE LKSHOR 2148          190/  8/ 27 1011.5R
$$



USA.gov is the U.S. government's official web portal to all federal, state and local government web resources and services.